This demonstration page uses our WeatherBlox Daily Observations layout. Learn more.

Left ArrowRight Arrow

39.92423, -83.80882

Hourly Observations for February 20, 2016

Temp ( °F °C ) Dew Point ( °F °C ) Humidity (%) Winds ( mph kmh ) Pressure ( in mb ) Visibility ( mi km ) Precip ( " mm )
12:56 am 00:56 Clear 54 12.2 47 8.3 77 77 WSW 18 30 29.98 1015 10 16 N/A
1:56 am 01:56 Clear 51 10.5 47 8.3 86 86 SW 14 22 29.99 1016 10 16 N/A
2:56 am 02:56 Clear 52 11.1 48 8.8 86 86 WSW 17 28 29.99 1016 10 16 N/A
3:56 am 03:56 Clear 51 10.5 47 8.3 86 86 WSW 13 20 29.98 1015 10 16 N/A
4:56 am 04:56 Clear 49 9.4 48 8.8 96 96 SW 10 17 29.99 1016 10 16 N/A
5:56 am 05:56 Clear 49 9.4 48 8.8 96 96 SSW 8 13 30.01 1016 10 16 N/A
6:56 am 06:56 Clear 49 9.4 48 8.8 96 96 SSW 9 15 30.00 1016 10 16 N/A
7:56 am 07:56 Sunny 48 8.8 48 8.8 100 100 S 6 9 30.00 1016 10 16 N/A
8:47 am 08:47 Partly Cloudy 50 10 50 10 100 100 SSW 10 17 30.00 1016 8 13 N/A
8:56 am 08:56 Mostly Cloudy 50 10 50 10 100 100 SSW 13 20 30.01 1016 10 16 N/A
9:46 am 09:46 Partly Cloudy 54 12 52 11 94 94 SSW 14 22 30.00 1016 10 16 N/A
9:56 am 09:56 Mostly Sunny 54 12.2 51 10.5 89 89 SSW 15 24 30.01 1016 10 16 N/A
10:56 am 10:56 Sunny 60 15.5 47 8.3 62 62 SW 18 30 29.99 1016 10 16 N/A
11:56 am 11:56 Sunny 64 17.7 43 6.1 47 47 SW 16 26 29.97 1015 10 16 N/A
12:56 pm 12:56 Sunny 67 19.4 40 4.4 37 37 SW 25 41 29.93 1014 10 16 N/A
1:56 pm 13:56 Sunny 68 20 40 4.4 36 36 SW 24 39 29.91 1013 10 16 N/A
2:56 pm 14:56 Sunny 69 20.5 38 3.3 32 32 WSW 24 39 29.89 1012 10 16 N/A
3:56 pm 15:56 Sunny 69 20.5 39 3.8 33 33 W 23 37 29.90 1012 10 16 N/A
4:56 pm 16:56 Sunny 68 20 38 3.3 33 33 WSW 18 30 29.90 1013 10 16 N/A
5:56 pm 17:56 Sunny 65 18.3 39 3.8 38 38 WSW 12 19 29.92 1013 10 16 N/A
6:56 pm 18:56 Clear 58 14.4 39 3.8 49 49 WSW 9 15 29.94 1014 10 16 N/A
7:56 pm 19:56 Clear 55 12.7 38 3.3 53 53 WSW 7 11 29.96 1015 10 16 N/A
8:56 pm 20:56 Clear 55 12.7 38 3.3 53 53 SW 9 15 29.96 1015 10 16 N/A
9:56 pm 21:56 Clear 54 12.2 38 3.3 55 55 SSW 7 11 29.97 1015 10 16 N/A
10:56 pm 22:56 Clear 53 11.6 39 3.8 59 59 SW 5 7 29.97 1015 10 16 N/A
11:56 pm 23:56 Clear 45 7.2 37 2.7 73 73 S 3 6 29.98 1015 10 16 N/A

Powered by AerisWeather